GW1898 Weather Reports


Display with metric or nautical units.
time (UTC)temp
F
wind
direction
speed
MPH
gust
MPH
rain 1hr
in
rain 24hr
in
rain mn
in
humidity
%
barometer
mb
20260504081546 51 0 0.0 0.0 0.00 0.00 0.00 60 1015.6
20260504044546 49 0 0.0 0.0 0.00 0.00 0.00 66 1015.9
20260504043040 49 0 0.0 0.0 0.00 0.00 0.00 66 1015.9
20260504041546 49 0 0.0 0.0 0.00 0.00 0.00 60 1015.9
20260504040101 49 0 0.0 0.0 0.00 0.00 0.00 60 1015.9
20260504034555 49 0 0.0 0.0 0.00 0.00 0.00 60 1015.9
20260504033103 50 0 0.0 0.0 0.00 0.00 0.00 56 1015.8
20260504031539 50 0 0.0 0.0 0.00 0.00 0.00 56 1015.7
20260504030049 50 0 0.0 0.0 0.00 0.00 0.00 56 1015.7
20260504024545 51 0 0.0 0.0 0.00 0.00 0.00 64 1015.5
20260504023057 51 0 0.0 0.0 0.00 0.00 0.00 64 1015.5
20260504021540 51 0 0.0 0.0 0.00 0.00 0.00 64 1015.3
20260504020040 49 0 0.0 0.0 0.00 0.00 0.00 49 1015.3
20260504014550 51 0 0.0 0.0 0.00 0.00 0.00 49 1015.2
20260504013049 51 0 0.0 0.0 0.00 0.00 0.00 49 1015.0
20260504011542 52 0 0.0 0.0 0.00 0.00 0.00 46 1015.0
20260504010050 52 0 0.0 0.0 0.00 0.00 0.00 46 1014.9
20260504004557 55 253 0.0 0.0 0.00 0.00 0.00 46 1014.8
20260504003040 55 0 0.0 0.0 0.00 0.00 0.00 33 1014.6
20260504001540 57 0 0.0 0.0 0.00 0.00 0.00 33 1014.5
20260504000046 59 0 0.0 0.0 0.00 0.00 0.00 29 1014.4
20260503234547 61 0 0.0 0.0 0.00 0.00 0.00 29 1014.3
20260503233041 61 0 1.0 2.0 0.00 0.00 0.00 29 1014.2
20260503231541 62 0 0.0 3.0 0.00 0.00 0.00 27 1014.1
20260503230040 65 315 3.0 4.0 0.00 0.00 0.00 27 1014.1
20260503224540 65 333 1.0 2.0 0.00 0.00 0.00 27 1014.2
20260503223049 64 305 4.0 4.0 0.00 0.00 0.00 27 1014.1
20260503221544 64 322 9.0 9.0 0.00 0.00 0.00 27 1014.2
20260503220045 65 236 0.0 2.0 0.00 0.00 0.00 27 1014.2
20260503214541 65 226 1.0 4.0 0.00 0.00 0.00 28 1014.3
20260503213100 64 317 3.0 5.0 0.00 0.00 0.00 28 1014.3
20260503211546 63 319 6.0 6.0 0.00 0.00 0.00 28 1014.2
20260503210055 63 277 3.0 6.0 0.00 0.00 0.00 29 1014.3
20260503204552 63 0 1.0 6.0 0.00 0.00 0.00 29 1014.4
20260503203043 62 296 4.0 6.0 0.00 0.00 0.00 29 1014.3
20260503201541 63 360 1.0 8.0 0.00 0.00 0.00 30 1014.9
20260503200044 63 285 2.0 5.0 0.00 0.00 0.00 30 1015.0
20260503194543 62 225 0.0 7.0 0.00 0.00 0.00 30 1015.2
20260503193052 61 263 3.0 6.0 0.00 0.00 0.00 33 1015.3
20260503191545 61 327 1.0 4.0 0.00 0.00 0.00 33 1015.5
20260503190044 61 276 1.0 1.0 0.00 0.00 0.00 33 1015.8
20260503184551 60 318 0.0 2.0 0.00 0.00 0.00 33 1015.9
20260503183058 59 321 3.0 5.0 0.00 0.00 0.00 33 1016.3
20260503181540 59 316 2.0 5.0 0.00 0.00 0.00 33 1016.3
20260503180048 58 296 8.0 8.0 0.00 0.00 0.00 33 1016.4
20260503174543 57 34 11.0 11.0 0.00 0.00 0.00 33 1016.5
20260503173108 56 5 6.0 7.0 0.00 0.00 0.00 33 1016.4
20260503171542 56 207 0.0 1.0 0.00 0.00 0.00 34 1016.6